Weather in Stare Selo

Ukraine / Sumi District     50°49′23″N   34°48′26″E
temp.,
°C
wind,
m/s
gust,
m/s
humid.,
%
clouds,
%
prec.,
mm/h
press.,
hPa
HPBL,
m
14 june, mon
mon1400:00+15s229157 0.0 100914
03:00+14se11915 0.0 101011
06:00+15ese24935 0.0 1011110
09:00+20ese35795 0.0 1012453
12:00+23sse347129 2.8 1013865
15:00+24se33625 3.1 10131438
18:00+24e12670 0.1 10131148
21:00+19ne228426 0.4 101412
15 june, tue
tue1500:00+17nne228662 0.0 101411
03:00+16n22915 0.0 101413
06:00+17nne24939 0.0 101498
09:00+21nne34780 0.0 1013492
12:00+25ne34651 0.1 10121333
15:00+25ene336583 1.8 10111332
18:00+23ne2481100 3.1 1010258
21:00+19ne22895 3.4 101117
16 june, wed
wed1600:00+18ne229013 0.1 101017
03:00+17ne11915 0.1 101111
06:00+17nne23945 0.0 101195
09:00+22ne23815 0.1 1012457
12:00+24nne4477100 5.5 1012634
15:00+22ne3583100 12.3 1013195
18:00+22nne498816 1.8 1013466
21:00+19ne4119110 3.2 1014288
17 june, thu
thu1700:00+18ne5139648 1.2 1015342
03:00+17ne5139568 1.3 1016360
06:00+16ne513942 0.0 1017391
09:00+20ene711832 0.0 1018647
12:00+22ene797113 0.0 10191169
15:00+23ne78708 0.0 10201239
18:00+21ne710730 0.0 1020901
21:00+18ene613800 0.0 1022568
18 june, fri
fri1800:00+15ne513830 0.0 1022353
03:00+14ene513880 0.0 1023314
06:00+14ene515860 0.0 1024427
09:00+18e612730 0.0 1024793
12:00+21e79630 0.0 10241153
15:00+22e68650 0.0 10241412
18:00+21e58720 0.0 10241158
21:00+17ene37880 0.0 1025113